COSMOS 970 DEB, 65007

Orbit data source: Space-Track

COSMOS 970 DEB, 65007 is space debris in LEO originally from a launch on Wed, 21 Dec 1977 UTC launched from the Tyuratam Missile And Space Complex (TTMTR). Debris objects in space refer to the collection of defunct objects orbiting the Earth. Examples of debris include non-operational satellites, rocket bodies, and fragments generated from explosions, collisions, or faulty payload assembly.

Loading next visibility...
Identifier
65007, 1977-121DU
Orbit
LEO
Country
Flag of CISCIS
Related business
Manufacturer
Unknown
Mission
Spacecraft
Bus & Motor
Unknown
Mass
Unknown
Launch date (UTC)
1977-12-21 (48 years ago)
Launch vehicle
Unknown
Launch site
Tyuratam Missile And Space Complex (TTMTR)
Object type
Payload
Rocket body
Debris
Shape & HBR
Unknown shape, 0.1 m
Radar Cross Section
Small (<0.1 m²)

Expand to show TLE details & history
Last TLE update: 2 days ago

TLE from 2 days ago
0 COSMOS 970 DEB
1 65007U 77121DU  26170.18122894  .00000160  00000-0  25800-3 0  9992
2 65007  65.8400  90.7303 0127611 160.7693 273.1568 13.69873163628370
Epoch: 2026-06-19T04:20Z
TLE epoch observation values (Epoch: 2026-06-19T04:20:58.180Z)
Latitude
60.57542°
Longitude
170.37001°
Altitude
1,005.456 km
Speed
7.357 km/s
True Right ascension
09h 32m 06s
True Declination
60° 25' 59"
Sunlit
Object was in daylight at epoch
Visualization orbit readout
Latitude
Unknown
Longitude
Unknown
Altitude
Unknown
Speed
Unknown
Apparent Right ascension
Unknown
Apparent Declination
Unknown
Sunlit
N/A
Visualization observer readout
Local Sidereal Time
07:12:42
Azimuth
Unknown
Elevation
Unknown
Doppler factor
Unknown
Orbital elements
Apogee altitude
1,092.681 km
Perigee altitude
904.412 km
Semi-major axis
7,376.683 km
Eccentricity
0.01276
Inclination
65.84°
RAAN
90.7303°
Arg. of periapsis
160.7693°
True anomaly
271.69558°
Mean anomaly
273.1568°
Eccentric anomaly
272.4263°
Mean motion
3.42572 °/min
Orbital period
105.09 mins
BSTAR
0.000258
Loading maneuver chart data...
Computing Atmospheric mass density...
Loading historical data...
Loading historical data...
Loading historical data...
Loading historical data...
Loading historical data...
Loading historical data...
Loading historical data...

Documentation

Showing up to 5 results
|